Theta_e
317 315 318 320 320 321 323 325 322 320 321 315 316 317 315 317 318 319 319 319 319 319 319 319 319 319 319 320 319 320 320 320 321 320 322 322 319 317 318 318 318 318 319 324 326 329 336 336 337 339 340 340 341 342 341 341 340 340 338 336 332 332 331 329 330 323 317 318 318 320 322 324 326 328 330 331 332 332 332 332 330 330 331 329 329 330 330 330 329 327 325 323 320 318 316 315 316
318 317 319 321 320 324 326 325 321 318 317 313 315 316 315 318 318 318 318 318 319 319 319 319 319 319 319 319 320 321 320 320 320 320 321 320 323 319 316 318 317 319 319 325 330 328 333 337 336 338 339 339 341 341 340 340 340 339 337 334 332 332 329 327 325 319 317 319 319 321 322 324 326 328 329 330 331 330 330 329 327 328 328 327 327 328 327 326 326 324 321 318 316 314 312 311 312
319 318 320 322 323 325 325 323 320 316 314 313 314 316 317 318 317 317 318 318 319 318 319 319 319 319 320 321 320 321 321 321 320 321 322 322 325 321 315 318 317 319 319 325 332 329 333 338 336 337 338 339 340 340 340 339 339 338 336 334 333 332 328 324 321 317 318 319 320 324 326 328 329 331 331 330 331 329 329 328 326 327 327 327 327 326 325 324 323 321 318 315 313 312 310 310 310
318 319 319 323 325 324 324 322 320 316 314 313 314 317 318 318 317 317 318 318 318 318 319 320 320 319 320 320 320 321 320 321 320 321 323 320 320 318 315 317 317 318 319 324 332 334 335 336 335 337 338 339 339 340 340 339 338 337 336 335 334 333 328 322 318 317 318 320 323 327 329 329 330 333 332 332 331 329 329 327 327 327 328 328 326 325 324 322 319 316 313 312 311 310 310 309 310
319 320 319 322 327 324 323 321 320 318 315 315 315 317 318 318 317 318 318 318 318 319 319 319 319 318 319 319 320 321 320 321 321 321 323 321 317 316 316 316 317 318 320 322 330 335 333 331 334 336 337 338 338 338 338 338 337 337 335 335 334 334 330 321 317 318 318 322 326 329 330 329 330 332 332 332 331 329 327 326 325 326 327 326 325 323 320 316 313 311 310 310 310 310 310 309 309
319 320 319 321 324 323 323 319 318 318 318 319 317 317 318 318 318 318 318 318 319 318 317 318 319 319 319 318 318 319 319 319 321 321 320 320 318 316 316 316 317 317 320 322 328 334 330 328 332 335 337 337 336 336 337 337 336 337 335 335 335 333 331 323 318 319 319 325 329 330 330 329 330 331 331 332 330 328 325 322 322 322 323 323 322 319 315 313 312 311 310 309 309 310 309 308 309
318 322 322 322 323 323 323 318 317 318 319 321 318 318 318 318 318 318 319 318 319 318 317 317 318 319 318 317 318 318 317 318 319 320 318 319 318 316 316 316 317 317 320 322 327 333 329 327 329 333 336 336 336 336 336 336 335 336 335 335 334 332 332 325 319 320 322 327 330 329 330 330 329 329 330 332 329 326 324 322 321 321 320 319 318 317 315 314 313 311 309 309 309 309 308 307 307
317 322 323 324 323 322 322 318 320 320 318 319 319 319 318 318 318 318 319 318 318 318 317 318 318 318 317 316 319 318 317 317 317 318 318 319 319 316 315 316 317 317 319 321 326 330 326 325 328 332 335 336 336 335 336 337 335 336 335 335 334 332 331 327 320 320 324 328 330 329 329 330 329 328 329 332 330 326 324 323 324 324 322 320 317 316 316 316 314 311 309 309 308 307 306 305 305
317 321 323 324 322 319 320 319 320 320 319 319 318 318 318 318 318 318 318 318 318 317 318 317 318 318 317 317 319 319 316 315 315 316 318 319 318 316 315 315 316 316 317 319 324 327 323 324 327 329 333 334 334 334 336 336 336 336 336 335 334 332 331 329 322 320 325 328 329 330 330 329 329 330 329 331 332 329 327 326 326 326 326 324 320 318 317 319 316 311 309 308 308 306 305 304 303
320 320 322 323 320 318 317 318 319 319 319 318 318 318 318 317 317 318 318 318 317 317 317 316 317 317 317 318 319 318 315 314 315 315 316 317 317 315 315 315 315 315 316 317 320 323 322 322 326 327 330 332 333 333 335 336 336 335 335 335 334 332 330 330 326 320 323 328 328 329 329 328 329 329 329 330 331 331 330 329 329 328 329 328 326 322 320 321 319 314 309 308 307 305 304 304 303
321 318 320 321 318 316 316 317 319 319 318 318 318 317 317 317 317 318 318 318 317 317 317 316 318 317 317 318 318 317 314 314 315 314 315 316 316 315 315 315 316 315 315 316 316 319 319 319 323 325 327 330 332 332 334 335 336 335 335 335 333 333 331 331 330 325 322 325 328 329 329 329 330 329 330 330 330 331 331 330 329 329 329 328 328 326 324 323 321 316 311 308 306 305 303 304 303
321 318 319 319 317 316 317 318 318 319 318 317 317 317 316 317 317 318 318 318 317 317 317 317 317 316 317 318 318 316 315 314 314 314 314 314 315 315 315 315 315 315 315 315 315 317 316 317 320 323 326 328 330 332 333 334 335 335 335 335 334 333 333 331 330 329 323 322 326 328 329 330 331 332 332 331 331 331 330 330 329 329 329 328 328 327 326 324 323 318 313 310 306 304 303 303 304
321 319 319 318 318 318 317 318 319 319 318 318 317 316 316 317 318 317 317 318 317 318 317 316 316 316 318 318 317 317 315 315 314 314 314 314 315 315 315 315 315 315 315 315 315 315 315 315 317 319 323 325 328 330 332 334 334 335 335 334 334 333 333 331 329 330 326 322 323 326 328 329 330 331 332 332 332 330 329 329 328 328 328 328 327 327 326 324 323 320 315 312 308 304 303 303 304
320 319 319 319 318 318 317 318 319 318 317 317 317 316 316 317 317 316 317 317 318 317 316 316 316 317 317 317 317 317 316 315 314 314 314 314 314 314 315 315 315 315 315 315 315 315 315 314 315 316 319 322 325 328 330 332 333 334 335 334 333 332 332 331 328 329 328 324 322 324 327 328 328 329 330 331 332 331 330 329 328 327 327 326 326 326 325 323 322 320 316 314 311 306 303 303 303
319 319 319 318 317 316 317 319 318 317 318 317 316 316 316 317 316 316 317 316 317 316 316 316 316 316 316 317 317 316 315 314 314 314 314 314 314 314 314 315 315 315 315 315 315 315 315 314 314 315 316 319 323 326 329 331 331 332 334 335 334 332 332 331 329 328 329 327 323 322 324 326 328 329 330 331 332 331 330 329 328 327 327 326 326 326 325 323 321 319 318 316 313 308 305 303 303
316 319 320 317 316 316 317 318 318 317 318 317 316 316 317 317 315 316 316 315 316 316 316 316 315 316 316 316 315 315 314 314 314 314 314 314 314 314 314 314 315 315 315 315 315 315 315 315 315 315 315 319 327 331 331 331 331 330 332 334 334 334 333 331 330 329 328 328 326 324 323 324 325 327 328 330 331 332 331 330 329 329 328 327 327 327 325 324 322 321 320 319 315 311 307 304 302
315 320 319 316 316 315 316 317 317 316 317 317 316 316 317 317 316 316 315 314 315 316 316 316 315 314 314 314 314 314 314 314 314 314 314 313 315 317 315 314 315 315 316 316 315 315 315 315 315 315 315 318 328 334 333 333 333 331 331 332 334 334 334 332 331 330 328 328 327 326 326 325 326 327 327 328 329 330 331 330 331 330 329 328 327 327 325 324 324 322 321 320 318 315 312 307 303
319 321 318 316 316 315 316 317 317 318 318 318 317 316 316 316 317 316 315 316 316 316 316 315 314 314 313 314 313 314 313 313 313 313 314 313 314 316 314 313 314 315 315 316 316 315 315 315 315 316 316 315 321 329 332 333 333 332 331 331 333 334 334 332 332 331 330 329 328 327 327 327 328 328 329 330 330 329 330 331 331 330 329 328 326 326 325 324 324 323 321 320 319 318 315 311 306
319 319 317 317 317 316 316 317 317 317 318 317 317 316 315 316 316 316 315 316 317 317 317 315 314 314 314 313 313 313 313 313 314 314 314 313 313 314 314 313 314 314 314 315 315 316 315 315 315 315 316 316 316 321 325 328 330 331 331 331 332 333 332 332 333 333 332 331 330 329 328 328 328 329 329 330 329 329 330 331 330 329 328 326 325 325 324 324 323 322 321 320 319 317 317 315 311
319 318 319 317 316 316 316 317 317 316 317 317 317 316 315 316 315 316 316 317 318 317 317 316 315 315 314 313 312 313 313 313 314 314 314 314 314 313 314 313 313 314 313 314 315 315 315 315 315 315 316 316 316 318 320 324 328 330 330 331 333 333 333 333 333 333 333 332 332 331 330 329 329 329 328 328 328 327 327 328 328 328 326 323 324 325 324 324 322 321 321 320 318 318 318 317 315
319 318 318 317 316 316 316 316 316 316 316 316 317 315 316 316 315 315 315 316 318 317 314 314 314 314 313 312 312 313 313 313 313 314 314 314 314 314 314 314 314 314 313 314 314 314 315 315 315 315 315 316 316 319 323 326 328 330 330 331 333 333 334 334 333 333 333 333 333 332 330 329 329 329 328 328 328 327 326 325 326 327 325 324 325 325 325 324 323 323 323 322 320 320 320 319 317
318 317 317 317 316 317 317 316 316 315 315 315 316 316 316 316 315 315 315 316 316 315 312 311 311 312 311 311 312 312 313 313 313 314 314 314 314 314 314 315 314 314 314 314 314 313 314 315 315 315 315 316 316 318 327 329 327 329 331 331 333 333 332 333 335 335 333 333 333 332 331 330 329 329 329 329 328 328 327 326 326 326 325 325 326 325 326 326 325 325 324 323 323 322 321 320 318
317 317 317 317 317 317 317 316 315 315 315 316 316 316 315 315 316 315 315 315 314 312 311 310 310 310 310 311 312 312 313 313 313 314 314 314 314 314 314 314 315 315 315 314 314 314 313 314 314 315 315 316 316 317 327 331 326 328 331 330 331 332 332 334 335 334 332 332 332 332 332 331 330 330 329 329 329 329 329 329 328 328 326 326 326 326 327 327 326 326 324 324 324 323 321 320 319
317 317 317 317 317 316 317 316 315 314 315 315 315 314 314 316 316 315 314 313 311 311 310 310 310 310 311 311 312 312 313 313 313 313 314 314 314 314 314 314 314 314 315 315 315 314 314 314 313 314 314 315 317 316 324 330 329 329 330 329 329 330 332 333 332 331 331 331 331 331 332 332 331 330 330 329 330 330 329 329 328 328 328 328 328 327 328 328 327 326 325 324 324 323 321 319 318
317 317 317 316 315 316 316 315 315 314 315 315 314 314 316 316 315 314 313 311 310 310 310 310 310 310 311 311 312 312 312 312 312 313 313 313 313 313 313 313 314 314 314 314 314 314 314 314 313 313 313 314 317 319 324 329 330 330 330 329 329 330 330 331 330 330 330 331 331 331 333 332 331 331 330 329 329 329 329 328 328 328 328 328 328 328 328 328 328 327 326 325 324 322 321 321 319
316 316 316 316 316 316 316 315 316 315 315 314 314 315 316 315 314 314 312 310 310 310 310 310 310 310 311 311 312 312 312 312 312 312 312 313 313 313 313 313 314 314 314 314 314 314 314 314 314 312 312 314 319 323 327 329 329 329 330 329 329 329 328 328 329 329 330 331 331 331 332 331 331 332 331 329 327 329 330 329 328 328 328 328 328 327 328 328 328 327 326 325 323 322 322 321 320
315 316 316 316 316 316 316 316 316 315 315 314 314 316 316 313 313 314 311 309 310 310 310 310 310 310 311 311 311 311 311 312 312 312 312 312 313 313 313 314 314 315 315 315 314 314 313 313 313 312 312 314 321 326 328 330 329 328 329 328 329 331 330 329 330 329 330 331 330 329 329 330 331 332 333 330 328 329 329 328 329 328 327 326 326 327 328 328 328 327 326 324 323 323 322 321 320
315 315 315 317 317 317 317 317 316 315 315 314 314 315 315 312 313 314 310 309 311 312 311 310 310 311 311 311 311 311 311 311 311 312 312 312 312 312 313 314 314 315 316 316 315 315 314 313 312 313 313 314 322 327 328 329 329 328 330 328 330 333 332 332 332 329 328 328 327 326 327 328 329 330 333 333 329 329 329 329 330 328 325 323 324 326 327 328 328 327 325 324 323 322 322 321 320
315 315 316 317 318 318 317 317 315 315 315 313 314 315 315 313 314 313 310 309 311 312 312 311 311 310 310 310 310 310 310 311 311 311 311 312 312 312 313 313 313 315 315 316 316 316 315 314 313 313 315 317 323 327 327 327 328 327 328 329 330 331 330 331 331 330 329 328 328 327 326 326 326 328 332 332 330 330 329 330 330 329 327 326 327 327 327 327 327 327 325 325 324 322 322 321 320
315 315 316 317 318 318 317 316 315 315 315 313 314 316 316 315 314 313 311 311 312 313 313 312 311 310 310 309 309 309 310 310 311 311 311 311 311 312 312 313 313 314 315 317 318 317 317 316 315 315 318 320 322 325 326 327 328 327 326 328 330 330 328 327 328 331 330 329 330 329 328 328 327 326 328 330 331 330 329 329 329 330 329 329 329 328 327 328 327 327 326 326 324 323 322 321 320
316 316 316 317 318 317 316 316 315 315 314 313 314 316 317 315 314 313 311 311 312 314 313 312 311 310 309 309 309 309 309 310 310 310 311 311 311 311 312 312 313 315 316 318 319 320 320 321 320 318 318 319 321 325 327 328 331 330 327 326 327 329 328 326 326 329 329 329 328 328 327 327 327 326 327 329 330 330 328 327 328 329 327 326 326 326 326 326 326 325 325 324 324 323 322 321 321
317 317 317 319 319 318 317 316 316 316 315 313 314 316 318 315 313 313 311 311 312 314 313 311 311 310 309 309 309 308 308 309 310 310 311 311 311 311 312 312 314 315 318 319 319 320 322 323 324 323 321 321 322 324 325 328 332 332 329 326 326 328 328 326 324 324 325 326 326 326 325 325 324 325 327 328 328 328 328 327 327 326 324 324 325 325 325 324 323 323 323 323 323 322 322 321 321
318 317 317 319 319 319 318 315 315 316 315 315 315 317 318 316 313 312 311 312 313 314 313 311 310 309 309 309 308 308 308 308 309 310 310 311 311 311 312 312 314 316 318 318 319 320 322 324 326 326 327 325 324 325 323 325 328 328 328 326 325 325 324 323 322 322 323 323 324 324 324 324 324 324 325 326 326 326 326 326 325 325 325 325 325 325 324 324 323 323 322 322 321 320 320 320 320
318 318 318 319 319 318 318 316 315 315 315 316 316 316 317 316 314 312 311 312 313 314 313 311 310 309 308 308 308 308 308 307 308 310 310 310 310 311 311 312 314 316 317 318 319 320 321 322 325 326 327 325 324 327 326 324 324 325 325 325 323 322 322 322 322 322 323 323 323 323 323 323 324 324 324 324 324 325 325 325 324 324 324 323 323 322 322 322 321 321 320 319 319 318 317 317 316
318 319 319 319 319 318 318 317 315 315 315 316 317 317 317 317 314 313 312 311 313 314 312 311 309 308 308 308 307 307 307 307 308 309 309 310 310 310 311 312 314 316 317 319 320 320 320 321 323 323 324 324 324 325 326 325 325 324 324 323 322 322 322 323 322 323 323 323 323 322 322 322 322 322 322 322 322 323 323 323 324 324 323 323 322 321 320 320 318 317 315 314 313 312 310 309 308
318 319 318 318 319 318 319 318 315 315 316 316 317 317 318 318 316 313 312 312 313 313 311 310 309 308 308 307 307 307 306 307 308 309 309 309 309 310 311 313 314 315 317 319 321 321 321 321 321 321 321 322 322 322 323 324 323 323 322 321 321 321 321 321 321 321 321 321 321 321 320 320 320 320 320 320 320 320 320 320 321 321 320 319 318 317 315 313 311 309 308 307 306 305 305 304 305
318 318 318 318 318 318 320 318 314 314 316 316 317 318 318 318 317 315 312 312 312 312 311 311 309 308 308 307 307 306 306 307 308 308 309 309 309 309 311 313 314 315 316 318 320 320 319 320 321 321 321 320 320 321 322 322 321 321 320 320 320 319 319 319 319 318 318 317 316 316 315 314 314 314 314 314 314 313 313 313 312 312 312 311 310 308 307 306 305 305 305 304 304 303 304 303 303
317 317 318 318 319 318 319 318 314 313 315 317 318 318 318 318 317 315 312 312 313 312 312 311 309 308 308 307 306 306 306 307 308 308 308 308 308 310 312 314 314 315 316 317 318 319 319 319 320 319 319 320 319 319 320 320 320 320 319 318 318 317 316 316 314 312 311 310 309 308 307 307 306 306 306 306 307 307 306 306 305 305 305 304 304 303 303 303 302 303 303 302 302 302 302 301 301
318 318 318 319 319 319 320 318 315 313 315 317 318 317 317 318 317 314 313 313 312 311 310 310 309 308 307 306 306 306 305 305 306 307 307 308 308 310 312 314 315 315 316 316 317 318 318 318 317 317 317 318 318 318 318 318 318 317 317 316 315 313 311 309 307 306 305 305 305 304 304 304 304 303 303 303 303 303 303 303 302 302 302 301 301 301 301 300 300 300 300 300 299 299 299 299 299
318 318 318 319 320 320 320 318 315 313 315 317 317 317 317 318 316 312 311 311 309 307 307 307 307 307 307 306 305 306 305 305 305 306 307 308 309 311 313 315 316 315 315 316 317 317 317 317 317 317 317 317 317 317 315 314 313 313 312 311 309 308 306 305 305 304 304 303 303 302 302 301 301 301 300 300 300 300 300 300 299 299 299 299 299 299 299 299 298 298 298 297 297 297 297 296 296
319 319 319 319 320 320 319 318 316 315 315 315 315 317 318 319 318 313 309 308 307 306 306 306 306 306 305 304 304 304 305 304 304 306 307 308 309 310 313 315 315 316 315 315 316 316 316 316 316 315 315 315 314 313 311 310 309 309 308 307 306 305 304 304 303 302 302 301 301 300 300 299 299 299 299 298 298 298 297 297 297 297 297 297 297 297 297 297 296 296 296 296 296 295 295 294 294
320 320 320 319 319 320 320 319 318 318 319 316 316 320 320 319 319 316 310 307 307 307 306 307 305 304 304 304 304 303 304 304 304 306 307 307 309 310 311 312 313 313 313 312 313 313 313 312 312 311 311 310 309 309 308 307 307 306 305 305 305 304 303 302 302 301 300 300 299 299 298 298 298 298 297 297 297 297 296 296 296 296 296 296 296 296 296 296 296 295 295 295 295 294 294 294 294
320 320 319 319 319 319 319 319 319 320 321 316 314 319 321 319 319 316 311 309 309 307 307 307 306 304 304 304 304 303 303 304 304 305 306 306 308 308 309 309 309 309 309 309 308 308 308 308 308 307 307 307 306 306 306 306 305 305 305 304 304 303 303 302 301 300 299 298 298 297 297 296 296 296 296 296 296 296 296 296 296 296 296 296 296 296 295 295 295 295 294 294 294 294 293 293 293
321 319 318 318 318 319 319 319 319 319 320 317 315 318 319 320 319 315 312 311 310 308 308 308 306 305 305 305 304 303 303 304 304 305 305 305 306 306 306 306 306 306 306 306 306 306 306 306 305 305 305 305 305 305 305 305 304 304 304 303 303 302 302 301 299 298 298 297 296 296 296 295 295 295 295 295 295 295 295 295 295 295 295 295 295 295 294 294 294 293 293 293 293 293 292 292 292
319 316 316 318 317 318 319 319 319 318 319 319 318 318 319 320 319 314 312 313 312 310 308 308 307 305 305 304 303 302 302 303 304 304 304 305 305 305 305 305 305 305 305 305 305 305 304 304 304 304 304 304 304 304 304 303 303 302 302 302 302 301 300 299 298 297 296 295 295 295 295 295 295 295 295 295 295 295 295 295 294 294 294 294 293 293 293 292 292 292 292 292 292 291 291 291 291
316 314 315 316 316 317 317 318 318 318 318 320 320 319 319 321 319 316 314 315 315 313 309 308 307 306 305 304 303 302 302 302 303 303 304 304 304 304 304 304 304 304 304 304 304 304 304 304 304 303 303 303 303 303 302 302 301 301 301 301 300 300 299 297 296 295 295 294 295 295 295 295 294 294 294 294 294 294 293 293 293 293 293 292 292 292 292 291 291 291 291 291 291 290 290 290 290
315 315 316 316 316 316 316 316 317 318 319 320 320 319 320 320 320 319 318 316 316 314 310 309 307 306 305 304 303 302 302 302 303 303 304 304 304 304 304 304 304 304 303 303 303 303 303 303 303 303 302 302 302 301 301 301 300 300 300 299 299 298 297 296 295 295 294 294 294 294 294 294 294 294 293 293 293 293 292 292 292 292 291 291 291 291 290 290 290 290 290 289 289 289 289 289 289
315 316 316 317 317 316 316 316 316 319 322 318 316 318 320 320 320 318 316 314 315 314 311 309 307 306 305 304 303 302 302 302 302 303 303 303 303 303 303 303 303 303 303 303 303 303 303 302 302 302 301 301 301 300 300 300 300 299 298 298 298 297 296 295 295 295 294 294 294 294 294 293 293 293 293 292 292 292 291 291 291 290 290 290 290 289 289 289 289 289 289 289 289 288 288 288 288
314 316 316 319 320 318 319 319 318 320 320 314 312 316 318 319 319 317 315 313 313 313 312 309 307 307 306 304 303 302 301 302 302 302 302 302 303 302 302 302 302 302 302 302 302 302 302 302 301 301 301 300 300 300 299 299 298 298 297 297 296 296 295 295 295 295 294 294 294 293 293 293 292 292 292 292 291 291 290 290 290 289 289 289 289 288 288 288 288 288 288 288 288 288 288 288 288
314 316 317 320 322 321 323 322 320 321 317 311 311 314 316 318 317 316 313 311 311 311 311 310 308 307 306 304 303 302 301 301 301 301 302 302 302 302 302 302 302 302 302 302 302 301 301 301 300 300 300 300 299 299 298 298 297 297 296 296 295 295 295 295 295 294 294 294 293 293 293 292 292 292 291 291 290 290 290 289 289 289 289 289 288 288 288 288 288 288 288 288 288 287 287 287 287
314 316 317 319 321 322 323 322 322 321 316 311 311 314 317 318 315 311 309 308 308 308 309 309 308 307 305 304 302 302 301 300 300 301 301 301 301 301 301 301 301 301 301 301 301 301 300 300 300 300 300 299 298 297 297 296 296 296 295 295 295 295 295 295 294 294 294 293 293 293 292 292 291 291 290 290 289 289 289 289 288 288 288 288 288 288 288 288 288 288 288 287 287 287 287 287 287
315 315 317 318 319 319 318 317 317 317 316 314 312 315 317 315 310 307 307 307 306 306 307 308 308 306 305 304 302 302 301 300 300 301 301 301 301 301 301 301 301 301 301 301 300 300 300 299 299 299 299 298 297 296 296 296 296 295 295 295 295 295 294 294 294 294 293 293 292 292 291 291 290 290 289 289 289 288 288 288 288 288 288 287 287 287 287 287 287 287 287 287 287 287 287 287 287
316 315 316 316 316 316 316 315 313 313 317 319 315 315 316 314 311 308 307 307 306 306 306 307 307 306 305 304 303 302 301 300 300 301 301 301 301 301 300 301 301 301 300 300 300 299 299 299 298 298 297 296 295 295 295 295 295 295 295 294 294 294 294 294 293 293 292 292 292 291 291 290 290 289 289 289 288 288 288 288 288 288 288 288 288 287 287 287 287 287 287 287 287 287 287 287 287
315 316 316 315 314 315 316 318 317 316 320 320 317 317 317 317 315 310 307 308 307 306 306 307 307 306 305 304 303 302 302 300 300 300 300 301 301 300 300 300 300 300 300 300 299 299 298 298 297 297 296 295 295 294 295 295 295 294 294 294 294 294 293 293 293 292 292 292 291 291 290 290 289 289 289 288 288 288 288 288 288 288 288 288 288 288 288 287 287 287 287 287 287 287 287 287 287
313 314 315 315 316 317 317 318 319 320 321 320 318 317 316 317 317 311 309 310 309 307 306 306 306 306 305 305 304 303 302 301 300 300 300 301 300 300 300 300 300 300 299 299 298 298 298 297 296 295 295 295 294 295 294 294 294 294 294 294 293 293 293 293 292 292 292 291 291 290 290 289 289 289 288 288 288 288 288 288 288 288 288 288 288 288 288 288 287 287 287 287 287 287 287 287 287
310 312 313 313 315 317 317 317 318 319 320 320 319 317 316 317 316 314 313 312 310 309 307 306 306 306 306 305 304 303 302 301 301 301 300 300 300 300 300 300 300 299 299 298 298 297 297 296 295 294 294 294 294 294 294 294 294 293 294 293 293 293 292 292 292 292 291 291 290 290 289 289 289 288 288 288 288 288 288 288 288 288 288 288 288 288 288 288 287 287 287 287 287 287 286 286 286
311 312 314 313 313 313 314 316 316 316 318 320 319 318 318 315 313 313 314 313 311 310 308 307 307 306 306 305 304 303 302 301 301 301 300 300 300 300 299 299 299 299 298 298 297 296 296 295 294 294 294 294 294 293 293 293 293 293 293 293 292 292 292 292 292 291 291 290 290 289 289 289 289 288 288 288 288 288 288 288 288 288 288 288 288 288 288 288 288 288 287 287 287 286 286 286 286
313 313 314 315 314 314 315 317 316 314 316 318 318 319 318 314 310 310 311 311 312 311 310 309 308 307 306 305 305 304 303 302 301 301 300 300 300 300 299 299 299 298 298 297 296 296 295 294 294 293 293 293 293 293 293 293 293 293 292 292 292 292 291 291 291 291 290 290 289 289 289 288 288 288 288 288 288 288 288 288 288 288 288 288 288 288 288 288 288 288 288 287 287 286 286 285 285
Wind_Speed
5 4 3 3 4 2 0 4 3 1 0 4 3 2 5 4 1 1 4 3 2 6 7 5 5 5 6 5 6 7 5 7 8 6 4 4 5 7 6 4 4 3 1 7 8 10 14 12 12 13 12 12 11 10 9 8 6 5 3 1 1 1 1 2 4 6 8 9 10 10 10 9 7 7 6 4 3 2 2 2 3 3 4 5 5 4 4 4 4 5 6 6 6 6 5 4 4
5 3 2 3 3 1 2 4 2 2 2 4 4 4 5 2 1 4 7 5 5 5 5 4 4 3 4 5 6 5 2 7 8 7 6 5 6 7 6 5 4 3 2 8 8 8 13 12 11 12 12 12 11 10 9 8 6 5 3 1 1 1 1 2 6 7 8 9 10 9 9 8 7 7 6 4 3 2 1 2 3 3 4 5 4 4 4 4 4 5 6 7 7 7 6 5 4
5 3 2 2 1 3 3 4 2 1 2 4 4 4 2 3 6 6 7 6 6 5 3 3 2 2 4 4 2 3 5 8 7 6 6 6 4 6 6 5 4 3 2 8 9 8 11 12 11 12 12 12 11 10 9 8 7 6 4 2 1 0 2 3 7 8 8 9 9 8 8 8 7 7 6 5 3 2 1 2 2 3 4 4 4 5 5 6 6 7 7 8 8 8 7 6 5
5 2 2 1 3 4 3 3 1 2 2 3 4 4 2 5 7 6 7 6 5 4 3 4 1 2 4 2 3 3 6 9 8 6 5 5 4 5 5 4 5 3 2 7 9 7 9 12 12 12 12 11 11 10 9 9 7 6 5 3 2 0 2 4 7 8 9 9 8 7 8 8 7 6 6 5 4 3 2 3 2 2 3 4 5 6 7 8 8 8 7 7 7 7 7 6 5
5 3 3 1 4 2 2 1 1 2 3 3 4 6 4 6 6 6 6 5 5 4 4 5 2 3 3 5 5 4 6 5 7 7 4 5 5 4 4 5 5 4 3 5 9 8 7 10 13 12 11 11 11 10 9 8 7 7 5 4 3 1 1 4 7 8 9 7 7 7 7 7 6 5 4 4 4 4 3 3 3 3 3 4 6 7 8 9 9 8 8 7 7 6 6 5 5
5 4 3 0 2 1 2 1 1 3 5 5 4 7 5 6 5 5 5 5 4 4 5 5 4 2 1 5 5 8 8 4 5 4 3 3 3 3 3 4 5 5 4 5 9 9 6 7 11 13 11 11 10 10 9 7 7 7 5 5 3 2 2 4 6 8 8 6 6 6 6 5 5 4 2 2 4 3 3 3 3 4 5 5 6 8 8 9 10 10 9 8 6 5 4 4 3
3 2 2 2 1 1 3 1 2 4 5 6 5 6 6 6 4 2 3 4 3 3 4 4 5 5 1 3 4 8 7 5 5 4 3 3 1 2 2 4 5 5 4 5 8 8 7 7 10 12 11 11 11 10 9 7 7 7 6 5 4 2 2 3 5 7 6 6 6 5 4 4 3 2 1 2 2 2 1 2 3 5 6 7 7 7 8 10 12 12 11 8 6 3 3 2 2
3 1 2 3 1 2 2 2 3 3 4 5 6 6 6 5 2 1 2 2 3 3 3 4 6 5 3 2 3 8 7 7 6 4 3 2 1 0 1 4 5 5 5 5 7 8 9 7 9 12 11 11 12 11 9 8 8 7 7 5 4 3 2 3 4 6 6 5 5 4 3 2 1 1 1 2 2 1 1 1 3 5 7 8 8 8 9 11 13 13 12 9 5 3 2 2 1
3 2 3 3 1 1 0 3 3 4 5 4 5 6 5 4 2 2 2 3 3 3 3 4 6 6 3 2 5 8 7 8 7 6 5 2 1 1 2 3 5 5 5 5 6 7 8 7 9 11 11 11 12 11 10 9 8 8 7 5 4 3 3 3 4 5 6 5 4 3 2 1 1 1 1 2 3 2 3 3 4 6 8 8 9 9 10 11 13 14 12 9 5 2 1 1 1
3 2 2 2 1 2 2 3 4 4 6 5 6 6 4 3 1 1 2 2 3 2 4 4 4 5 4 1 6 6 6 7 5 5 5 4 2 1 1 2 4 4 4 5 6 7 7 8 10 11 12 12 11 11 11 10 9 9 8 6 5 4 3 2 4 5 6 6 4 3 2 2 2 2 1 2 4 4 4 5 6 8 9 10 10 10 11 12 13 14 13 10 6 3 1 1 1
3 1 2 3 2 2 1 3 4 4 6 6 6 6 4 2 1 1 2 1 3 0 3 3 2 4 5 2 5 5 3 4 4 4 4 3 2 0 1 2 2 2 2 3 5 7 7 8 10 11 12 12 12 12 12 11 10 10 9 8 7 6 4 2 3 4 7 6 5 4 4 4 4 3 2 3 4 4 5 5 7 8 10 11 11 12 12 11 12 14 13 10 7 4 3 1 0
3 1 2 3 1 1 2 3 4 5 6 6 6 5 3 1 2 1 2 1 2 1 2 4 3 4 6 3 6 6 2 4 5 4 3 2 2 1 2 3 3 2 1 1 3 6 6 7 9 11 12 13 13 13 13 13 12 12 10 9 8 8 6 4 4 4 6 7 6 6 5 5 4 5 4 5 5 4 5 5 7 8 9 10 12 12 12 11 11 13 13 10 8 5 4 3 1
3 1 4 2 2 2 2 2 4 5 5 5 6 5 1 1 0 2 3 3 3 2 3 4 4 3 5 1 6 7 2 5 7 7 4 4 5 4 5 5 5 4 3 2 2 4 5 6 7 9 11 12 14 14 14 14 14 13 12 11 10 9 8 6 5 5 6 7 8 6 6 6 5 6 5 5 5 4 5 6 7 8 8 10 11 12 12 11 11 12 12 11 8 6 5 4 3
3 2 4 0 1 0 1 1 4 4 4 6 5 4 1 1 2 3 5 5 2 3 4 4 3 3 5 3 5 4 2 5 9 10 8 6 6 7 7 7 8 7 6 5 4 5 5 6 6 7 9 11 13 14 15 15 15 14 14 13 12 11 10 8 7 6 6 7 9 8 7 6 6 7 6 6 7 6 7 6 7 8 9 9 10 11 12 12 12 11 12 11 9 6 5 5 4
3 2 3 1 1 2 1 0 3 4 3 7 3 3 1 2 2 2 3 5 4 4 5 3 2 3 3 2 0 2 7 9 11 12 10 8 6 8 8 8 9 9 9 8 7 6 6 6 7 7 8 10 12 13 14 15 16 16 15 14 13 12 11 10 8 7 7 7 9 9 8 7 7 8 7 7 9 8 8 7 8 9 9 9 9 11 12 13 12 10 10 11 10 8 6 5 5
2 2 3 2 1 2 2 1 2 3 4 7 4 3 2 4 2 2 2 5 6 4 6 3 2 4 4 3 4 7 11 12 12 10 8 7 5 6 8 9 9 10 10 10 10 9 8 7 7 8 8 9 10 10 12 12 14 16 16 15 14 14 12 11 10 8 8 8 8 9 9 8 8 8 8 9 9 9 9 9 9 9 11 10 9 11 13 13 12 10 10 10 10 9 6 5 6
2 2 3 2 2 1 2 3 2 1 5 7 4 2 3 2 2 2 4 6 7 5 5 1 1 2 2 3 6 9 11 11 8 5 4 4 2 4 7 8 8 9 10 11 12 11 11 10 9 8 9 9 8 9 10 11 13 15 16 17 16 14 12 11 11 9 8 8 9 9 8 8 9 9 10 10 10 10 10 10 9 10 11 11 10 12 14 13 12 11 10 10 10 9 8 6 5
2 2 2 1 1 2 2 1 3 3 4 5 3 3 3 3 1 2 6 6 7 6 4 3 3 2 2 4 7 8 7 6 6 5 4 2 3 5 8 9 8 9 10 11 12 13 13 12 11 10 9 9 9 9 9 11 13 14 15 17 17 16 13 12 12 10 9 9 9 9 8 8 9 9 10 10 9 10 10 10 10 10 12 12 12 14 15 14 13 13 12 11 10 10 9 6 5
3 2 2 0 3 4 3 4 4 2 2 2 2 2 3 4 4 4 6 5 5 7 4 8 7 4 1 6 6 5 4 5 6 5 4 1 3 6 8 9 10 11 11 12 12 13 14 14 14 12 11 10 9 10 9 10 11 12 13 15 17 16 15 14 12 11 10 10 9 9 8 8 9 10 11 10 9 9 9 11 11 11 12 14 14 15 14 13 13 14 13 12 10 9 10 9 7
2 3 2 3 4 3 3 3 3 4 3 2 1 2 4 4 3 5 7 9 8 3 2 4 5 5 4 6 4 2 3 4 4 3 2 1 1 3 6 8 9 11 12 13 14 14 15 16 16 15 14 12 11 10 9 8 9 11 12 13 15 15 15 15 13 13 12 11 10 9 9 9 9 11 12 12 12 12 12 13 14 13 13 14 13 13 12 11 14 13 13 13 11 11 13 13 10
2 3 2 5 3 1 4 3 3 3 2 3 2 2 5 3 3 7 6 9 5 4 7 4 2 3 4 4 2 1 2 3 3 2 2 2 2 3 4 5 7 9 11 13 15 16 17 17 17 17 16 14 13 11 9 7 7 9 12 12 13 15 15 14 14 14 13 13 12 11 11 10 10 12 13 12 12 12 14 15 14 13 12 12 10 10 10 11 12 10 11 12 11 13 14 14 14
2 1 4 4 1 1 4 3 2 2 1 2 3 4 3 2 6 7 6 7 1 5 5 4 3 4 5 3 1 2 3 4 4 4 4 4 4 5 5 6 7 8 9 11 13 16 17 18 18 18 18 16 15 12 8 6 7 8 11 13 12 13 15 15 13 12 13 13 12 12 11 11 11 12 13 12 11 11 11 12 12 11 8 8 7 6 7 8 8 7 8 9 9 10 12 13 14
2 2 3 1 1 2 2 2 2 1 3 4 4 4 3 6 7 5 5 4 1 3 5 3 2 4 3 1 1 3 4 5 5 5 5 5 5 6 7 8 8 9 10 11 11 13 16 18 19 18 18 17 16 14 9 6 7 7 9 12 10 10 12 13 12 11 12 13 13 13 12 10 9 11 13 13 11 10 9 9 9 8 6 6 6 4 4 6 6 5 5 7 9 9 10 11 12
4 0 4 1 1 3 1 1 3 3 6 6 4 4 7 9 5 3 3 0 3 6 4 1 2 2 1 1 2 4 5 5 6 6 6 6 7 7 8 9 9 10 10 11 11 12 13 15 17 17 18 17 16 15 10 6 6 6 8 11 10 10 10 9 10 11 12 14 14 13 12 11 9 9 11 12 11 9 9 9 9 8 7 7 6 4 4 5 4 4 5 8 10 10 9 10 11
3 2 3 1 2 5 4 4 6 6 8 7 6 8 9 7 3 3 3 2 4 6 2 0 2 3 1 2 4 4 5 5 5 6 7 8 9 9 9 9 9 9 9 9 10 11 11 13 14 15 17 17 14 12 10 7 6 6 7 9 11 13 11 9 10 10 11 12 13 13 14 14 12 11 11 11 11 9 9 10 10 9 10 9 8 7 7 5 4 5 6 7 9 9 7 7 9
2 3 1 2 4 6 7 7 8 7 7 5 6 10 8 4 4 4 4 3 4 4 2 0 1 1 3 4 4 4 4 4 4 5 5 6 7 7 7 7 7 6 6 6 7 9 9 11 13 13 15 16 12 9 7 6 6 7 8 11 13 13 13 13 13 12 11 10 10 12 15 16 15 14 13 13 13 13 11 10 10 10 10 11 11 11 10 9 7 8 7 7 8 7 6 7 8
3 4 5 8 8 8 8 8 8 6 7 7 8 9 3 7 6 3 5 5 4 3 1 1 2 3 5 5 4 3 3 2 2 2 3 4 3 3 4 4 5 4 4 4 4 5 6 8 10 10 13 16 10 6 9 9 11 12 12 14 14 13 14 15 15 14 11 11 10 11 12 13 14 14 15 16 15 14 13 12 12 11 10 11 12 13 13 12 10 10 9 8 8 8 8 9 9
3 5 8 10 10 10 11 9 7 5 5 6 7 6 4 7 5 3 7 7 5 5 2 2 3 4 5 4 3 2 1 1 0 0 1 1 1 2 3 4 4 4 4 4 4 2 1 4 7 9 11 13 10 8 13 15 16 17 15 15 13 12 12 12 14 13 11 11 11 12 12 12 13 12 14 16 17 15 13 14 14 12 10 9 11 12 12 12 12 11 8 8 8 9 10 11 11
3 5 7 8 9 10 9 6 4 5 3 4 5 5 6 10 6 6 9 8 7 6 3 2 2 4 4 3 2 2 2 1 1 1 0 0 1 2 3 4 5 5 6 6 7 6 3 2 5 8 11 13 14 15 16 17 16 16 16 14 11 12 11 9 9 9 10 10 11 12 12 10 10 10 10 12 16 17 14 13 12 11 11 9 10 11 11 11 11 9 7 8 10 12 14 14 14
5 5 5 7 9 6 5 5 5 5 3 6 5 4 5 9 8 8 8 8 8 6 4 3 2 2 2 2 1 2 1 0 0 1 1 1 1 2 3 4 5 5 6 6 7 8 6 4 5 8 11 14 17 19 17 16 14 13 16 14 10 10 11 9 7 6 6 7 7 8 8 8 8 9 8 8 12 13 11 9 8 10 11 9 9 10 10 9 7 7 7 8 11 15 15 15 15
4 4 4 5 6 2 8 7 5 4 3 7 6 5 2 8 9 7 7 9 8 6 4 3 2 1 1 1 1 1 1 1 1 1 1 0 1 2 3 4 4 4 5 6 8 10 9 7 8 9 10 12 15 19 19 16 13 12 14 12 9 7 7 8 8 8 6 5 4 4 5 6 6 5 5 5 7 8 8 6 5 7 7 7 8 9 9 8 7 9 10 11 14 15 14 14 14
4 4 4 4 3 2 7 6 4 3 2 7 7 5 2 8 9 7 7 8 7 6 5 4 3 2 1 0 1 1 1 1 1 2 1 0 1 2 3 4 4 5 6 7 8 11 11 10 10 10 10 12 14 16 17 17 14 12 12 11 8 5 4 5 6 7 7 6 5 4 3 3 3 2 3 2 2 3 4 3 4 5 5 4 5 6 7 7 8 9 10 12 13 12 12 12 12
5 4 6 4 5 4 3 5 4 3 2 6 8 6 3 6 10 8 7 7 7 6 5 5 4 2 2 1 1 1 1 1 2 2 2 1 0 2 4 4 5 6 7 8 9 10 12 13 12 12 12 12 11 11 13 14 12 10 9 8 7 5 4 3 2 2 2 1 1 0 1 1 1 0 1 1 2 2 1 1 2 3 3 2 2 2 4 5 6 8 8 9 9 10 11 12 14
4 5 5 6 6 6 4 2 5 5 2 5 8 8 8 3 11 10 8 8 7 7 6 5 5 3 3 2 1 1 1 1 4 4 3 2 1 2 3 4 5 7 9 9 9 10 11 13 13 12 11 10 11 11 10 9 9 8 7 5 5 4 5 6 7 7 6 5 5 6 6 4 4 3 2 1 1 2 2 2 3 3 3 2 2 2 3 4 5 7 8 9 10 11 12 14 15
5 4 4 5 6 6 7 3 5 6 4 6 8 9 11 6 10 11 8 8 7 7 6 6 5 4 4 3 3 2 1 3 6 5 3 2 1 2 3 4 7 9 11 11 11 11 12 13 13 12 11 11 11 11 10 10 9 8 8 7 8 9 10 10 9 8 7 7 7 8 7 6 5 4 3 3 2 1 1 2 3 4 5 4 4 4 5 6 7 8 9 11 12 12 12 13 14
8 6 5 7 7 7 10 3 5 4 4 7 10 10 12 10 7 10 8 7 7 7 7 6 6 5 5 4 4 3 2 4 6 5 4 2 1 1 3 6 8 10 12 13 14 14 14 14 13 13 14 13 11 10 9 9 9 9 9 8 9 10 11 9 8 7 7 6 6 6 6 5 4 3 2 2 1 2 2 2 3 4 5 5 6 6 7 7 8 8 8 9 11 12 13 14 15
6 7 7 9 8 9 11 4 5 3 4 7 10 11 12 13 9 9 10 8 8 9 8 7 7 6 6 5 5 4 5 6 6 5 4 3 2 2 4 7 9 11 13 14 13 13 14 15 15 15 16 14 13 12 11 9 7 7 6 6 7 8 6 5 5 7 7 7 7 7 6 6 5 4 4 3 2 2 2 2 2 3 3 4 5 6 7 8 9 10 10 11 13 14 15 16 16
7 8 8 8 8 9 9 3 5 5 2 8 11 13 12 14 11 8 12 9 9 9 9 8 7 6 6 6 6 5 5 6 6 5 4 3 4 5 6 8 11 12 14 14 14 14 16 17 16 15 15 14 13 12 11 10 8 7 6 5 6 7 7 7 9 11 11 11 11 11 12 12 12 12 12 11 10 10 10 10 10 10 10 10 11 11 11 11 12 12 13 14 14 15 16 17 18
8 7 6 8 7 8 8 4 4 3 2 5 8 10 11 13 8 8 9 7 6 6 6 6 7 7 6 6 6 6 6 5 4 4 4 5 6 7 8 10 13 14 15 15 16 16 16 15 14 14 13 13 12 11 9 8 9 8 8 8 9 11 13 14 15 16 15 15 16 16 17 17 16 16 16 15 15 14 14 14 13 13 13 13 13 12 12 12 13 13 13 14 14 15 16 18 19
8 6 6 7 6 5 6 3 4 3 4 6 8 8 11 13 6 7 4 4 5 4 4 4 5 6 6 7 7 6 7 6 6 6 6 8 9 9 10 12 14 15 17 17 18 17 16 15 14 15 14 13 12 10 11 12 12 13 13 15 15 16 18 18 19 19 17 18 18 18 18 17 17 17 16 16 15 15 15 15 14 14 13 13 13 12 12 13 14 14 14 14 14 15 16 18 19
8 9 9 9 8 7 7 3 1 5 7 5 7 8 9 11 9 6 4 4 4 5 6 6 5 5 5 8 8 8 8 8 8 10 11 11 12 12 13 15 16 16 17 18 18 17 16 16 15 15 15 15 15 14 15 16 17 17 17 18 18 19 20 19 19 19 18 17 17 17 17 16 15 15 15 15 15 15 15 15 14 14 13 13 13 13 14 14 14 15 15 15 15 16 16 17 17
8 9 11 12 12 10 10 8 4 6 6 5 5 7 4 4 9 8 6 6 6 7 8 7 6 6 6 7 8 10 11 12 12 14 15 15 15 16 16 17 18 18 18 18 19 18 18 17 17 17 17 17 18 18 19 18 17 18 18 18 18 19 19 19 18 17 17 16 16 15 15 14 14 14 14 14 14 14 14 14 14 13 13 13 14 14 14 14 15 16 16 17 17 17 17 17 17
7 3 4 8 10 9 9 8 3 4 4 3 4 6 3 2 6 8 7 7 7 7 8 8 8 7 8 8 8 9 12 15 16 17 17 18 18 19 19 20 20 20 21 21 21 21 20 20 20 20 20 19 19 19 19 18 17 17 17 17 17 16 16 17 17 15 15 14 14 13 13 13 13 12 12 12 12 13 13 13 13 13 14 14 14 15 15 16 17 17 18 18 18 18 18 18 19
5 2 2 3 6 8 8 7 6 5 5 2 6 6 5 6 3 7 9 8 8 8 8 9 9 9 9 9 9 10 12 16 19 20 20 21 22 22 22 22 23 23 23 23 23 23 22 21 21 20 20 20 19 18 17 16 16 16 15 15 15 14 14 15 15 14 14 13 11 12 12 11 11 12 12 12 12 12 13 13 14 14 15 15 16 16 17 17 17 18 18 18 19 19 19 19 20
2 4 2 1 2 5 6 6 6 5 4 4 7 6 5 7 3 6 7 7 8 10 11 11 12 12 11 11 11 11 14 18 20 22 23 23 24 24 24 25 25 25 24 23 23 22 22 21 20 20 19 19 18 17 16 16 15 14 13 12 11 12 13 13 14 13 13 11 10 10 10 10 11 11 12 12 13 13 14 14 15 16 16 17 17 17 18 18 18 18 19 19 19 19 20 19 19
3 5 4 3 1 1 3 5 5 4 5 7 8 9 5 6 4 6 5 5 8 9 10 11 13 14 13 14 13 14 18 22 22 23 25 25 26 26 26 25 24 24 23 22 22 21 20 20 19 19 18 18 18 17 16 15 14 12 11 10 10 11 13 13 13 12 12 10 10 10 10 11 11 12 12 13 14 14 15 15 16 17 17 17 18 18 18 18 18 19 19 19 19 19 19 19 19
6 6 4 4 2 2 2 4 3 5 7 8 9 12 8 5 4 5 3 1 4 8 9 11 14 16 15 15 15 17 21 24 24 25 26 26 27 26 25 24 23 22 22 21 20 20 19 18 18 17 17 18 17 16 14 13 12 10 10 10 10 11 12 12 11 11 11 10 9 10 10 11 11 12 13 13 14 15 15 16 17 17 17 18 18 19 19 19 19 19 19 19 19 18 18 18 17
5 4 4 4 3 3 4 4 4 6 6 2 2 6 9 7 4 2 4 3 4 8 10 13 16 18 18 17 17 18 22 25 25 26 27 27 27 26 25 24 23 22 21 20 19 18 18 17 16 16 17 17 16 14 12 11 10 10 10 10 9 10 11 10 10 10 9 9 9 9 10 10 11 12 13 14 14 15 16 17 17 17 18 18 18 19 19 19 19 19 19 20 20 19 19 19 18
5 5 6 5 4 4 5 5 5 6 4 2 2 3 5 7 7 3 4 5 4 5 8 15 19 20 20 19 18 19 22 25 26 26 27 27 27 26 25 24 23 22 21 19 18 18 17 17 16 15 16 16 14 13 12 11 10 10 10 9 9 10 9 9 8 8 8 7 8 8 9 9 10 11 12 14 15 15 16 17 17 18 18 18 19 19 19 19 19 20 20 20 21 21 21 21 20
8 8 7 7 5 5 6 6 5 5 2 2 2 3 3 5 6 3 4 6 5 4 5 14 20 21 21 21 20 21 24 25 26 27 28 28 27 26 25 24 23 22 21 19 18 17 16 16 16 14 15 15 13 13 12 11 11 11 10 9 9 9 8 7 7 6 6 6 7 7 8 9 10 12 13 14 15 16 17 18 18 19 20 20 20 20 21 21 21 21 22 21 21 21 21 21 21
9 8 7 7 5 5 5 5 4 2 2 2 2 3 4 4 2 2 5 5 5 5 5 11 18 19 20 21 21 23 26 26 26 28 28 28 28 26 25 24 23 22 21 19 18 17 16 16 15 14 14 14 14 13 13 12 11 11 10 9 9 8 7 6 5 5 5 5 6 7 9 10 11 12 13 14 15 17 19 20 21 21 21 22 22 22 22 23 23 23 23 23 23 23 22 22 22
7 5 5 6 4 4 2 1 1 2 1 2 5 3 3 2 3 3 4 4 5 6 7 11 17 18 19 20 20 23 26 26 27 29 29 29 28 27 26 25 23 22 21 20 18 18 17 16 16 14 14 15 15 14 13 12 11 10 10 8 7 6 5 5 4 4 4 5 6 7 9 10 11 13 14 16 18 19 20 21 22 22 23 23 23 23 23 24 24 25 25 25 25 25 24 24 24
5 5 5 2 2 3 2 1 2 1 5 4 5 4 3 2 2 5 6 5 6 7 8 12 16 18 20 19 20 23 25 27 29 30 30 30 29 27 26 25 23 22 21 20 19 18 17 16 15 15 15 16 15 14 13 12 11 10 9 8 6 5 4 4 3 4 4 5 6 8 10 12 13 15 16 18 19 20 21 22 22 23 23 23 24 24 25 25 26 26 27 27 27 27 27 26 25
3 5 5 3 2 2 2 4 1 3 8 4 5 8 5 4 3 4 7 7 7 8 10 12 15 17 19 19 21 23 24 27 30 31 30 31 30 28 27 25 24 22 21 20 19 18 17 16 16 16 16 16 16 14 13 12 11 10 8 8 6 5 4 3 3 3 4 6 8 10 12 13 15 16 18 19 20 21 22 23 23 24 24 25 26 26 27 28 28 29 29 29 30 30 29 29 28
1 1 2 2 2 4 4 4 4 5 7 5 5 8 7 6 4 5 9 11 11 11 11 12 15 18 20 20 21 22 25 28 31 32 32 32 31 29 28 26 24 23 22 21 20 19 18 18 18 18 17 16 16 15 14 12 11 10 8 8 6 4 3 1 2 3 5 7 9 11 12 14 15 17 18 20 21 22 24 24 25 25 26 26 27 28 28 29 29 30 30 30 30 30 30 30 30
1 2 2 1 2 3 4 4 3 4 6 6 4 5 5 6 5 8 12 13 13 13 11 12 16 20 21 22 23 25 29 32 34 35 35 33 32 30 28 26 25 24 23 22 21 20 20 20 20 19 18 17 16 15 14 13 12 10 9 8 6 5 3 1 1 3 5 7 9 11 12 14 16 17 19 21 22 23 24 25 26 26 27 28 28 29 30 30 31 31 31 31 31 30 30 30 30
7 6 7 5 3 0 2 3 3 3 5 6 6 5 3 2 1 2 6 9 12 14 12 12 16 20 21 22 24 27 31 35 36 37 36 35 34 31 28 27 26 25 24 23 22 22 21 22 21 20 19 18 18 17 15 14 12 11 10 8 7 5 3 1 1 3 5 7 9 11 13 15 16 18 20 21 22 24 25 26 27 27 28 29 30 31 31 32 32 33 33 33 32 32 31 31 31
7 8 9 9 7 4 3 5 3 2 4 4 5 7 2 3 3 4 4 4 6 11 11 11 14 18 20 21 24 27 32 36 37 38 37 36 35 32 30 29 28 27 26 24 24 24 23 22 21 21 20 19 19 18 16 15 13 12 11 9 7 5 3 1 2 4 6 8 10 12 14 16 17 19 20 21 22 24 25 26 27 28 29 30 31 31 32 33 33 34 34 34 34 33 33 33 33
Wind_Direction
10 14 38 64 91 81 229 259 248 164 291 88 77 106 79 45 51 70 77 65 103 62 19 11 6 338 325 326 340 346 357 8 10 16 57 55 21 16 15 22 23 11 78 185 205 192 192 199 190 179 175 180 178 180 185 191 202 212 224 222 270 288 355 129 153 140 125 113 103 99 98 99 103 106 106 109 111 100 71 57 36 35 35 30 24 26 21 8 0 350 344 341 338 336 337 333 333
12 23 54 72 89 318 270 245 257 120 150 98 72 66 94 119 93 53 52 38 49 41 3 360 348 337 322 296 298 304 39 38 32 54 69 45 28 17 23 38 32 39 118 178 197 196 191 200 200 186 178 183 182 184 189 194 204 220 234 214 266 275 58 118 149 141 123 110 101 93 89 92 96 105 116 123 127 127 93 47 24 17 10 10 4 359 353 341 336 336 332 331 328 328 330 325 323
10 24 80 69 12 281 262 245 268 162 125 90 90 85 118 109 71 58 50 37 36 13 349 341 311 345 293 252 300 335 73 65 47 66 70 50 40 11 29 54 43 67 128 174 195 203 188 196 203 193 183 185 186 190 195 201 211 229 245 245 262 231 90 127 150 141 123 115 108 96 86 86 94 107 118 125 132 136 82 49 30 10 359 3 357 347 338 330 326 326 326 323 321 324 326 323 318
12 21 113 113 264 237 249 253 305 307 83 91 109 102 93 78 74 69 59 44 33 6 356 333 326 49 330 358 23 3 71 71 52 50 60 40 39 23 40 69 60 79 123 172 190 203 192 197 200 196 190 188 192 194 201 212 223 237 252 261 262 231 92 135 152 140 130 127 113 97 86 81 89 105 113 122 127 119 93 67 43 16 3 358 346 337 328 325 328 327 325 320 319 325 326 322 317
36 47 116 227 266 244 288 279 319 333 51 60 115 109 94 81 81 77 71 64 45 22 2 333 18 73 30 32 1 3 38 59 52 42 50 20 22 33 49 81 76 89 117 172 184 197 210 205 199 197 194 191 195 199 205 216 227 242 256 265 261 203 102 134 152 146 138 130 111 97 88 79 86 101 106 120 124 110 90 62 29 1 344 337 330 327 325 328 334 334 334 331 326 328 328 322 316
41 46 96 216 286 293 267 204 120 83 42 10 103 111 98 85 77 81 95 93 70 37 13 348 4 349 90 70 32 26 14 24 36 9 18 359 9 34 56 92 85 95 122 173 184 198 221 213 203 197 196 197 198 205 209 220 230 242 257 262 251 196 126 134 154 153 141 128 110 96 89 81 87 96 88 112 119 110 82 52 11 343 329 323 323 324 328 336 342 342 343 345 337 337 340 330 322
33 32 127 188 155 250 265 111 76 95 49 12 80 103 97 88 74 98 124 110 110 76 20 15 358 308 106 84 70 50 25 41 32 338 339 318 342 40 79 101 95 103 129 173 187 203 222 220 212 200 199 202 201 208 213 224 234 241 251 255 246 208 144 140 158 159 142 127 114 96 93 86 84 90 71 128 125 116 100 36 346 334 328 323 324 327 333 343 347 345 347 349 345 354 12 2 359
40 343 252 246 173 230 278 91 65 71 78 53 70 80 83 82 57 50 82 61 68 68 26 29 344 312 78 65 89 70 48 55 44 18 2 299 173 123 143 123 116 120 137 172 190 210 226 220 214 205 203 207 206 212 215 225 234 240 248 253 251 232 182 152 161 168 148 130 125 110 109 90 86 123 109 170 185 175 218 325 322 319 322 322 324 327 334 343 348 348 346 346 349 13 47 42 36
354 314 259 257 219 189 169 111 90 83 105 102 91 86 85 78 47 7 47 67 51 37 38 26 334 332 46 92 108 86 59 52 43 43 40 41 112 182 174 147 127 125 144 168 189 212 226 213 213 210 205 210 211 215 218 225 231 240 247 252 250 243 221 170 166 174 160 146 145 140 142 140 210 201 143 195 228 244 252 290 299 304 308 312 316 321 331 339 346 348 347 344 346 7 38 64 59
289 306 283 269 243 185 171 135 116 112 112 105 99 93 95 90 75 358 359 65 43 9 57 26 314 347 351 139 107 98 63 46 30 32 39 44 61 172 194 169 136 123 139 165 187 206 220 207 210 211 208 211 212 216 220 222 229 238 242 244 245 248 253 193 172 176 172 166 162 168 183 214 242 258 260 228 245 255 263 281 288 297 301 302 306 310 321 332 341 346 349 343 338 342 342 68 77
258 356 309 263 230 203 169 133 122 119 122 120 103 84 82 85 224 224 305 43 55 343 74 2 295 0 311 209 106 117 92 30 8 0 8 23 39 65 244 209 165 136 125 166 186 199 214 207 207 210 211 212 211 214 220 223 227 234 236 239 238 242 263 244 188 180 183 176 167 187 207 215 228 229 229 239 239 250 265 280 290 297 300 301 304 307 316 325 334 341 346 344 335 327 312 299 88
295 95 262 254 258 348 44 118 123 120 138 143 116 84 70 111 241 254 309 355 39 229 97 19 352 349 285 204 120 140 205 312 348 345 332 312 266 223 231 234 227 204 163 189 193 204 215 208 206 209 211 214 213 211 216 223 226 231 234 238 235 233 255 262 221 195 193 189 180 193 212 218 223 217 226 242 230 246 270 279 292 299 306 309 312 315 319 320 327 336 341 343 336 321 302 286 265
334 356 277 274 16 3 60 119 125 134 156 139 102 82 79 182 259 358 334 304 304 282 76 34 349 305 278 261 136 149 233 296 325 322 315 287 252 236 223 222 230 230 224 216 216 220 223 214 208 209 210 214 215 211 212 219 224 229 232 236 235 233 249 260 240 217 202 198 197 199 213 224 232 233 241 250 237 256 278 281 291 302 312 317 319 320 322 320 324 331 335 339 337 321 299 284 269
5 345 300 306 49 254 122 129 143 178 163 115 81 66 144 143 40 354 315 296 319 30 18 7 321 272 266 255 161 144 287 289 307 305 301 289 256 245 231 225 226 226 229 221 222 223 223 221 213 211 211 213 216 214 212 215 221 226 230 232 235 236 246 258 249 232 214 203 204 207 216 227 239 245 245 246 247 262 277 283 294 306 315 317 320 322 325 323 322 329 333 334 333 322 303 288 275
29 316 290 168 176 193 172 58 162 219 155 115 84 40 157 153 63 327 305 305 346 21 338 330 251 280 302 293 109 348 298 290 300 299 294 286 256 248 238 235 232 228 230 226 226 224 221 218 213 212 211 212 215 217 212 214 221 225 230 230 233 238 242 253 251 239 229 217 211 211 218 228 239 246 248 246 249 260 275 287 298 309 314 316 322 328 328 325 324 326 331 332 331 324 311 297 284
33 287 259 198 206 201 174 166 190 227 134 112 98 36 257 174 137 280 286 298 308 320 313 314 246 298 339 324 315 304 296 298 303 302 295 282 259 253 243 238 237 233 231 229 229 229 228 224 218 214 211 210 211 215 211 214 223 226 230 230 231 236 238 243 246 242 240 234 226 222 223 232 244 252 259 261 258 257 268 284 294 308 313 316 326 332 330 328 328 324 328 332 330 327 316 303 292
12 263 256 206 200 185 157 172 174 148 120 117 112 33 294 202 153 264 302 285 270 289 302 307 210 253 279 270 290 296 302 312 321 330 314 287 244 241 245 239 237 235 230 230 229 228 231 231 228 223 219 214 207 208 206 212 224 227 228 230 231 232 234 237 240 243 245 245 241 236 233 235 243 252 257 261 265 262 272 285 290 302 312 319 327 331 330 329 329 326 327 328 328 331 324 310 298
313 258 261 237 146 99 79 103 93 101 122 119 108 33 323 298 338 329 311 262 226 267 266 129 122 186 245 274 295 303 318 346 11 22 4 297 226 228 242 240 239 241 236 235 233 231 232 233 234 231 228 224 216 208 203 206 219 228 229 229 232 233 233 235 236 238 240 241 241 237 235 236 239 248 255 255 261 266 274 282 287 297 308 319 321 322 325 326 329 331 330 329 325 325 326 317 304
337 308 270 25 60 73 59 58 74 70 87 85 90 56 332 308 337 339 314 276 243 268 215 144 127 111 348 298 296 309 344 19 32 31 32 14 236 237 247 248 246 246 243 240 238 235 234 234 234 234 233 230 225 217 210 204 209 221 226 227 227 229 232 234 234 235 234 232 233 231 228 232 235 244 253 255 260 267 267 270 282 293 305 316 318 320 324 329 333 334 336 335 326 322 333 335 320
8 305 276 85 69 83 94 80 73 51 45 342 338 60 303 286 309 309 312 301 275 274 88 141 136 90 18 311 291 311 356 16 25 23 31 38 205 222 240 247 249 249 247 244 241 238 235 234 233 233 232 230 226 222 216 209 204 206 213 223 226 227 228 229 232 234 234 232 230 229 228 230 234 241 250 256 261 265 266 271 281 291 303 310 315 322 326 333 336 338 343 343 342 348 353 350 337
342 307 354 81 76 105 121 118 93 57 10 315 314 300 280 256 289 296 299 295 266 88 40 357 359 26 332 305 285 294 337 346 338 330 311 288 247 229 239 246 250 251 250 247 245 241 237 234 233 231 231 229 226 222 214 209 204 199 201 211 223 229 228 228 230 231 234 237 235 231 230 231 233 242 251 257 259 262 266 269 276 287 300 302 313 327 326 335 345 348 351 351 354 358 356 353 349
283 26 40 72 41 19 108 116 119 97 292 280 275 275 301 287 280 279 273 285 352 59 356 317 288 269 266 272 258 293 316 314 308 301 294 284 273 267 267 268 266 264 261 256 251 247 242 237 234 231 230 228 225 220 209 208 206 196 197 203 214 226 228 228 227 227 233 239 240 237 240 241 239 243 249 254 257 260 262 264 269 282 290 289 307 326 318 329 352 355 345 347 349 350 350 348 350
289 113 94 73 343 326 88 121 179 179 246 257 267 284 313 285 271 258 260 286 356 333 319 318 239 225 229 231 254 310 306 302 305 303 301 293 290 290 288 287 282 278 274 267 262 256 249 242 237 233 231 231 228 221 206 201 202 189 197 202 203 215 224 231 236 237 238 241 243 244 248 247 243 245 248 250 252 253 259 264 266 272 269 269 289 305 302 308 334 344 329 331 333 337 345 346 347
286 49 121 116 299 283 293 174 227 229 249 260 275 289 276 266 263 229 225 235 270 279 300 345 115 127 109 351 316 311 306 309 313 315 319 316 314 316 312 309 301 292 283 276 270 261 253 247 241 234 230 230 230 224 208 193 189 186 200 198 195 207 215 228 243 245 241 244 246 247 244 233 227 235 242 246 249 248 251 254 253 253 251 253 265 272 277 287 306 310 305 319 325 328 336 342 345
260 342 102 134 260 259 264 253 249 244 250 255 256 264 262 256 248 212 183 147 250 260 268 89 74 63 1 316 305 306 312 318 326 329 326 322 322 323 322 319 314 306 296 283 272 263 252 240 236 230 224 222 225 223 205 186 179 182 197 195 198 208 206 206 221 230 234 242 247 244 239 232 229 228 228 235 240 239 237 241 243 244 244 241 239 241 252 263 267 271 290 313 318 322 327 335 339
53 2 40 257 256 255 259 258 257 250 247 236 239 258 253 216 203 189 157 182 231 229 226 160 62 318 286 281 279 284 296 303 320 327 322 321 321 324 326 324 320 314 308 295 280 269 254 233 224 218 212 208 208 208 187 171 178 177 188 197 202 207 205 200 203 210 215 226 238 240 241 241 242 238 235 232 230 230 228 226 230 233 235 234 232 233 242 253 254 259 279 297 303 310 310 315 324
18 325 295 271 264 260 250 251 256 253 250 231 240 264 216 159 203 194 142 181 196 157 194 233 241 264 271 274 276 274 272 282 300 305 307 314 324 339 342 339 338 341 340 329 304 278 256 230 211 199 202 200 191 179 168 170 184 185 188 197 201 204 206 204 203 206 210 217 232 242 245 247 247 246 245 236 225 226 229 229 232 234 235 235 236 240 242 247 258 263 272 283 291 294 293 303 314
330 310 295 268 256 253 240 242 248 242 246 222 229 257 171 165 213 163 138 167 163 143 167 216 245 263 272 280 293 305 324 8 19 176 271 299 345 12 18 18 19 22 26 23 13 356 258 212 196 186 188 182 167 170 177 182 191 191 191 198 205 206 204 203 204 211 218 224 236 246 248 248 247 246 248 241 230 229 235 240 240 231 227 232 238 247 244 243 253 257 264 280 288 290 292 303 312
300 287 292 285 266 252 229 216 216 223 206 162 202 244 208 196 186 128 140 162 158 163 174 174 242 268 277 290 314 335 356 7 49 99 154 106 43 43 43 35 34 36 41 43 44 52 70 141 174 178 172 164 167 180 182 182 190 190 186 191 205 213 211 204 204 217 231 238 243 247 250 254 252 250 255 247 235 236 243 253 251 233 227 240 248 252 251 252 253 250 267 289 294 297 301 306 311
281 259 274 296 280 245 170 155 178 207 169 154 200 267 213 181 149 124 144 161 164 176 178 177 228 260 274 305 348 338 329 285 75 165 154 107 76 64 54 43 41 40 50 55 63 77 85 100 126 151 163 169 175 180 177 174 182 190 189 189 199 218 225 222 214 219 229 238 242 242 249 262 264 256 259 255 240 240 250 263 260 238 235 254 264 258 257 260 252 255 280 293 294 298 300 303 307
266 268 247 263 280 193 136 146 176 198 162 165 213 280 227 152 137 130 148 165 178 192 182 182 205 201 254 309 56 1 313 222 187 179 166 97 39 54 54 52 51 47 60 65 79 100 106 101 108 131 152 165 171 176 177 173 173 185 196 201 207 222 236 239 236 230 227 239 249 249 256 267 272 251 239 246 241 244 255 261 261 256 258 274 282 279 279 277 264 270 286 293 294 295 294 295 299
233 264 255 228 249 181 147 152 188 219 157 169 210 268 215 149 149 141 145 169 188 202 190 175 187 179 185 145 104 70 349 281 188 175 189 174 16 44 60 60 63 67 72 68 76 105 123 117 110 118 133 146 158 169 177 178 177 182 194 203 210 217 227 236 240 235 232 241 249 259 270 271 270 229 194 192 232 245 248 241 252 267 274 279 285 294 293 287 279 280 284 287 288 290 292 293 294
212 230 269 258 253 253 168 147 176 206 155 181 210 261 294 141 152 157 157 174 190 200 191 170 172 169 166 170 154 131 55 321 237 206 202 195 24 60 70 72 79 83 86 82 79 101 128 131 122 120 128 137 143 154 170 179 180 178 183 191 198 202 192 177 153 131 141 169 187 169 34 26 16 251 210 219 260 288 285 260 264 255 241 238 253 270 271 272 274 273 274 277 281 288 293 294 295
213 203 254 267 260 265 258 161 155 173 200 218 219 248 276 189 152 167 173 176 195 202 187 173 169 167 178 168 166 171 128 245 234 219 204 200 158 90 90 95 97 94 94 94 92 99 120 135 138 132 130 133 130 130 144 160 167 169 172 166 155 147 131 115 105 96 91 95 100 94 87 79 76 78 76 105 234 277 289 291 291 281 270 252 229 240 253 266 276 282 291 297 300 305 305 304 306
279 249 263 273 256 248 262 256 154 179 212 246 244 246 264 244 160 164 174 179 200 197 175 173 171 165 175 167 167 167 156 225 223 211 201 196 161 100 101 104 103 105 104 101 100 103 106 118 134 138 132 129 128 127 130 134 138 141 138 132 123 113 108 108 111 110 103 104 104 100 103 104 102 106 104 104 120 175 218 238 249 261 269 268 270 281 289 298 309 317 325 326 325 328 331 331 333
298 290 291 288 276 260 269 275 129 182 241 250 257 258 265 261 197 165 169 183 192 186 172 174 177 174 174 168 169 166 181 220 215 203 195 182 173 108 106 111 109 112 115 113 112 113 112 109 116 126 124 121 122 127 132 133 133 128 123 125 125 118 113 111 114 119 120 120 118 116 123 126 123 127 137 152 187 218 228 233 248 266 276 285 299 310 319 331 341 349 359 2 357 358 1 0 359
296 286 278 273 270 270 274 269 121 133 269 257 262 268 266 270 252 173 162 179 187 190 187 184 182 178 178 171 165 172 196 211 204 194 190 183 179 146 130 125 119 117 120 124 126 124 122 120 118 117 118 119 120 124 127 130 133 131 130 135 142 136 127 122 121 118 115 114 112 114 113 108 109 106 101 109 113 109 90 67 47 29 18 7 14 21 22 26 23 21 24 24 17 9 5 3 1
269 269 270 267 260 267 273 255 129 125 257 268 272 273 263 267 263 175 163 187 192 193 194 190 186 176 177 177 169 176 195 201 196 192 189 183 169 152 142 131 127 128 126 128 132 127 123 125 123 116 116 119 122 125 129 132 132 133 143 148 145 133 119 115 112 104 99 100 98 97 95 91 91 89 86 85 84 84 80 76 71 66 63 57 54 52 48 44 38 33 28 24 18 9 3 358 355
260 256 260 264 261 271 268 231 145 144 239 279 281 276 269 270 254 161 172 194 175 182 192 185 183 181 183 177 171 175 175 174 176 184 180 166 159 153 144 134 132 133 132 132 131 127 125 123 121 117 116 117 118 123 129 135 136 138 135 123 119 118 112 106 101 97 96 96 93 90 88 86 86 85 84 82 80 79 78 75 70 65 62 57 52 46 41 36 31 29 24 22 17 9 3 357 355
246 242 249 258 255 263 264 221 137 181 239 284 293 284 273 266 226 142 158 169 144 168 192 185 184 184 183 177 169 163 158 157 162 164 158 153 154 154 147 140 139 137 136 135 132 130 130 127 124 122 121 121 120 122 122 121 120 120 117 113 114 112 105 101 99 97 95 92 89 85 82 81 79 78 76 73 71 68 65 63 60 55 51 46 41 33 27 23 20 19 16 16 12 8 7 0 358
235 230 237 255 261 252 257 265 232 242 239 245 272 278 271 250 214 172 143 153 172 183 183 191 189 183 184 182 173 161 154 152 158 159 152 150 152 153 152 146 144 142 138 136 135 136 136 134 132 130 130 129 126 122 116 113 112 114 115 115 113 107 103 102 99 95 91 87 83 79 76 73 69 66 64 61 58 56 53 51 47 43 39 34 29 23 19 16 13 12 10 9 8 7 8 4 1
250 234 230 246 266 266 265 275 287 280 258 195 223 268 279 212 198 182 151 168 186 179 186 192 181 180 186 185 179 172 165 156 156 158 153 150 150 151 151 148 145 143 140 137 136 137 136 134 133 131 130 126 123 120 117 116 117 116 115 112 108 107 106 102 97 93 89 83 78 75 72 68 63 60 57 53 50 47 44 42 37 32 28 23 20 16 12 9 6 4 4 3 3 4 2 359 359
264 255 225 237 260 264 262 264 243 271 284 147 196 260 281 218 193 165 154 178 178 173 192 188 178 181 182 179 172 169 169 162 158 156 153 150 151 152 150 147 144 140 138 136 135 134 132 131 129 126 122 119 116 115 116 117 116 113 111 109 109 109 107 101 97 93 88 84 80 77 72 66 60 55 51 47 43 39 34 31 27 22 18 14 12 7 4 2 1 359 359 357 356 356 355 353 353
261 37 49 218 247 253 246 242 227 258 298 183 202 239 273 276 231 150 159 178 176 183 193 185 182 183 179 176 165 159 163 163 159 155 154 152 151 152 149 145 142 139 137 135 133 131 129 127 125 121 117 115 113 111 112 111 110 111 111 111 111 108 105 103 101 96 92 89 85 78 71 64 58 50 45 40 35 31 26 22 18 14 11 8 5 2 1 359 357 355 354 353 352 351 351 351 350
257 72 52 183 260 264 242 236 237 253 279 249 212 198 245 264 211 142 163 191 199 195 190 185 183 178 175 171 164 162 163 162 159 156 155 154 151 149 146 143 140 138 135 133 131 129 128 126 123 121 118 116 114 112 113 113 115 116 114 112 111 109 107 106 104 100 95 89 82 75 66 58 50 43 37 31 26 22 17 14 11 7 5 4 2 359 358 355 352 351 349 349 350 349 349 348 347
135 114 92 89 105 246 222 234 244 240 248 254 222 187 221 272 216 165 177 220 218 194 181 181 176 173 173 169 165 167 167 162 159 159 157 154 151 147 143 141 139 137 135 133 132 130 129 128 127 127 125 121 119 119 120 121 120 118 114 113 114 114 113 109 106 101 94 86 77 69 58 49 42 34 29 23 19 16 12 9 5 3 1 359 357 355 353 351 349 349 348 347 347 345 344 343 342
135 145 127 125 163 172 211 233 241 252 245 245 227 199 210 271 245 188 175 226 190 166 168 172 170 171 171 169 166 168 169 165 161 161 158 154 150 146 143 141 139 138 137 136 135 134 134 133 133 133 130 127 126 128 130 127 124 123 121 120 118 116 114 111 107 100 92 83 71 62 51 42 34 27 22 16 13 10 7 5 2 0 358 355 354 353 351 349 348 347 346 344 343 343 342 340 338
159 172 165 173 185 177 215 213 208 247 243 230 231 200 209 238 247 168 104 81 133 157 170 170 169 172 169 167 167 167 171 169 165 163 159 155 152 148 145 144 143 143 141 141 140 140 140 138 140 140 135 134 135 136 137 135 135 134 129 126 121 116 115 111 106 99 90 77 64 54 43 34 27 20 15 9 6 4 1 360 358 356 355 354 353 352 350 348 346 344 344 343 342 342 341 340 339
194 188 181 197 200 189 215 202 200 237 232 102 93 153 214 239 245 230 125 124 141 154 173 172 168 168 166 164 164 167 173 172 168 166 161 158 155 152 151 150 150 149 147 147 146 146 146 145 148 149 143 143 144 145 146 147 145 139 133 129 124 120 117 113 104 96 85 70 58 47 35 28 19 13 8 3 1 359 357 355 354 352 352 352 351 350 349 347 346 345 345 344 344 343 342 340 340
193 191 185 199 206 210 221 208 215 235 207 84 125 156 225 243 246 252 118 116 109 98 153 171 167 165 164 163 164 171 176 175 172 169 165 162 160 158 158 157 156 155 154 154 153 153 155 154 156 158 155 154 155 154 155 154 148 141 137 132 128 124 119 113 103 91 78 62 50 37 26 19 12 6 2 359 356 354 353 352 351 351 350 350 349 348 347 345 345 344 343 342 341 341 339 338 337
196 199 201 218 228 243 238 219 235 235 126 122 157 177 218 205 172 71 89 95 98 95 121 159 163 161 160 160 166 175 178 178 176 173 169 167 166 164 164 163 162 161 160 161 161 163 164 162 162 167 168 164 163 162 159 157 150 142 141 136 131 128 120 110 97 81 68 50 36 24 16 10 3 0 357 355 354 353 353 353 352 352 351 350 348 347 346 344 343 341 340 338 336 334 333 332 331
189 198 221 235 257 281 273 245 346 41 28 201 184 226 254 165 117 117 125 120 127 126 130 152 159 159 159 162 169 178 181 182 181 176 174 172 171 171 170 169 168 168 168 169 170 171 171 170 169 174 176 170 167 166 161 157 153 146 144 140 134 129 118 106 90 71 53 37 26 15 9 4 360 359 357 354 355 354 354 353 352 351 349 347 345 343 342 341 339 338 337 334 332 331 329 328 326
165 187 209 213 354 326 270 205 93 93 275 243 172 221 255 157 163 152 149 151 145 147 153 161 163 161 163 168 174 180 183 186 185 180 179 178 176 176 176 175 175 174 174 175 176 176 176 177 178 180 181 175 170 168 164 161 158 153 150 146 140 134 123 104 83 61 42 26 14 7 3 0 359 357 355 354 353 352 350 349 347 346 344 341 340 338 337 336 335 334 333 331 330 329 327 327 325
159 188 189 122 37 326 267 257 232 219 258 253 178 210 212 189 207 153 157 175 170 166 165 166 169 169 172 177 178 181 185 189 189 185 184 183 181 181 181 180 180 180 181 182 181 180 180 183 186 187 185 179 174 171 170 168 165 162 159 155 152 143 131 105 70 40 21 10 3 2 360 358 357 354 352 350 348 346 345 343 342 341 340 338 337 336 334 333 332 330 330 329 328 327 325 324 322
255 263 191 141 212 218 198 227 252 240 249 258 214 211 212 213 201 156 177 188 179 174 170 172 179 180 182 182 179 181 186 192 193 190 188 187 185 186 185 184 184 185 187 187 185 184 186 187 189 189 187 184 182 180 179 177 174 173 170 167 164 155 145 108 43 9 360 358 357 358 357 354 352 348 346 344 342 341 340 339 339 338 337 336 334 333 332 331 330 329 328 327 326 324 322 320 319
261 290 225 199 256 233 197 205 239 246 247 258 237 206 214 224 198 176 188 186 175 173 171 182 190 187 186 184 180 184 190 196 197 194 192 191 190 189 188 188 188 190 191 190 188 189 191 192 192 191 190 189 189 187 186 184 181 181 180 177 175 169 165 160 358 346 350 354 354 354 351 348 345 342 341 339 338 337 336 336 336 334 334 332 331 330 329 329 328 327 326 325 323 322 319 318 316
186 201 199 188 175 198 275 238 229 243 249 253 254 251 225 170 62 160 172 169 172 174 175 186 192 190 189 186 183 186 194 199 199 197 195 194 193 191 190 192 194 195 195 192 192 194 195 196 196 195 195 194 194 192 191 191 188 187 187 183 180 180 181 193 333 347 351 353 351 348 344 341 340 338 336 334 333 333 332 332 332 331 330 329 328 328 327 326 325 323 323 321 321 320 318 317 316
196 201 198 193 179 158 209 224 198 207 250 249 262 274 263 103 40 29 64 92 152 167 173 181 188 189 189 189 189 190 197 203 202 200 199 198 195 193 193 196 198 199 197 194 196 198 199 200 199 199 200 199 199 197 194 195 194 192 191 187 186 188 186 197 351 354 353 350 346 344 342 339 337 334 332 330 330 330 330 329 329 328 327 326 326 325 324 323 321 320 319 319 318 318 317 317 316